Fullerton, North Dakota
Current Conditions -  °F | °C
As of 12:35 AM on Tuesday 21 Oct 2014 (Local Time) from KGWR Reporting Station
Clear Clear  
Wind Chill: 40°   Ceiling: Unl
Heat Index: 45°   Visibility: 10mi
Dew Point: 37°   Wind: 8mph
Humidity: 76%   Direction: 130°SE
Pressure: 30.03"   Gusts: NA
Location:  46.17°N, 98.43°W
Report Text: KGWR 210535Z AUTO 13007KT 10SM CLR 07/03 A3003 RMK A01 P000
Loading
Personal Weather Stations






























Interactive Weather Map
Tropical Storm Tracking
New forecast layout! Learn more

10-Day Weather Forecast

Advertisements
Track Severe Weather on mobile